Year,Month,Day,Hour,Minute,Value (Times are PST for temperature in C)
2012,04,22,00,00,7.90
2012,04,22,00,01,7.90
2012,04,22,00,02,7.90
2012,04,22,00,03,7.80
2012,04,22,00,04,7.80
2012,04,22,00,05,7.80
2012,04,22,00,06,7.80
2012,04,22,00,07,7.80
2012,04,22,00,08,7.80
2012,04,22,00,09,7.80
2012,04,22,00,10,7.80
2012,04,22,00,11,7.70
2012,04,22,00,12,7.70
2012,04,22,00,13,7.70
2012,04,22,00,14,7.70
2012,04,22,00,15,7.70
2012,04,22,00,16,7.70
2012,04,22,00,17,7.70
2012,04,22,00,18,7.70
2012,04,22,00,19,7.60
2012,04,22,00,20,7.60
2012,04,22,00,21,7.60
2012,04,22,00,22,7.60
2012,04,22,00,23,7.60
2012,04,22,00,24,7.60
2012,04,22,00,25,7.60
2012,04,22,00,26,7.50
2012,04,22,00,27,7.50
2012,04,22,00,28,7.50
2012,04,22,00,29,7.50
2012,04,22,00,30,7.50
2012,04,22,00,31,7.50
2012,04,22,00,32,7.50
2012,04,22,00,33,7.50
2012,04,22,00,34,7.40
2012,04,22,00,35,7.50
2012,04,22,00,36,7.40
2012,04,22,00,37,7.40
2012,04,22,00,38,7.40
2012,04,22,00,39,7.40
2012,04,22,00,40,7.40
2012,04,22,00,41,7.40
2012,04,22,00,42,7.40
2012,04,22,00,43,7.40
2012,04,22,00,44,7.40
2012,04,22,00,45,7.40
2012,04,22,00,46,7.40
2012,04,22,00,47,7.40
2012,04,22,00,48,7.40
2012,04,22,00,49,7.40
2012,04,22,00,50,7.40
2012,04,22,00,51,7.40
2012,04,22,00,52,7.40
2012,04,22,00,53,7.40
2012,04,22,00,54,7.30
2012,04,22,00,55,7.30
2012,04,22,00,56,7.30
2012,04,22,00,57,7.30
2012,04,22,00,58,7.30
2012,04,22,00,59,7.30
2012,04,22,01,00,7.30
2012,04,22,01,01,7.30
2012,04,22,01,02,7.30
2012,04,22,01,03,7.30
2012,04,22,01,04,7.30
2012,04,22,01,05,7.30
2012,04,22,01,06,7.20
2012,04,22,01,07,7.20
2012,04,22,01,08,7.20
2012,04,22,01,09,7.20
2012,04,22,01,10,7.20
2012,04,22,01,11,7.20
2012,04,22,01,12,7.20
2012,04,22,01,13,7.20
2012,04,22,01,14,7.20
2012,04,22,01,15,7.20
2012,04,22,01,16,7.20
2012,04,22,01,17,7.20
2012,04,22,01,18,7.20
2012,04,22,01,19,7.20
2012,04,22,01,20,7.20
2012,04,22,01,21,7.30
2012,04,22,01,22,7.30
2012,04,22,01,23,7.30
2012,04,22,01,24,7.30
2012,04,22,01,25,7.30
2012,04,22,01,26,7.30
2012,04,22,01,27,7.30
2012,04,22,01,28,7.30
2012,04,22,01,29,7.30
2012,04,22,01,30,7.30
2012,04,22,01,31,7.30
2012,04,22,01,32,7.30
2012,04,22,01,33,7.40
2012,04,22,01,34,7.40
2012,04,22,01,35,7.40
2012,04,22,01,36,7.40
2012,04,22,01,37,7.40
2012,04,22,01,38,7.40
2012,04,22,01,39,7.40
2012,04,22,01,40,7.40
2012,04,22,01,41,7.40
2012,04,22,01,42,7.40
2012,04,22,01,43,7.40
2012,04,22,01,44,7.30
2012,04,22,01,45,7.30
2012,04,22,01,46,7.30
2012,04,22,01,47,7.30
2012,04,22,01,48,7.30
2012,04,22,01,49,7.30
2012,04,22,01,50,7.30
2012,04,22,01,51,7.30
2012,04,22,01,52,7.30
2012,04,22,01,53,7.30
2012,04,22,01,54,7.30
2012,04,22,01,55,7.30
2012,04,22,01,56,7.20
2012,04,22,01,57,7.20
2012,04,22,01,58,7.20
2012,04,22,01,59,7.20
2012,04,22,02,00,7.20
2012,04,22,02,01,7.20
2012,04,22,02,02,7.20
2012,04,22,02,03,7.20
2012,04,22,02,04,7.20
2012,04,22,02,05,7.20
2012,04,22,02,06,7.20
2012,04,22,02,07,7.10
2012,04,22,02,08,7.10
2012,04,22,02,09,7.10
2012,04,22,02,10,7.10
2012,04,22,02,11,7.10
2012,04,22,02,12,7.10
2012,04,22,02,13,7.00
2012,04,22,02,14,7.00
2012,04,22,02,15,7.00
2012,04,22,02,16,7.00
2012,04,22,02,17,7.00
2012,04,22,02,18,7.00
2012,04,22,02,19,7.00
2012,04,22,02,20,6.90
2012,04,22,02,21,6.90
2012,04,22,02,22,6.90
2012,04,22,02,23,6.90
2012,04,22,02,24,6.90
2012,04,22,02,25,6.90
2012,04,22,02,26,6.90
2012,04,22,02,27,6.90
2012,04,22,02,28,7.00
2012,04,22,02,29,7.00
2012,04,22,02,30,7.00
2012,04,22,02,31,7.00
2012,04,22,02,32,7.00
2012,04,22,02,33,7.00
2012,04,22,02,34,7.00
2012,04,22,02,35,7.00
2012,04,22,02,36,7.00
2012,04,22,02,37,7.00
2012,04,22,02,38,7.10
2012,04,22,02,39,7.00
2012,04,22,02,40,7.10
2012,04,22,02,41,7.10
2012,04,22,02,42,7.10
2012,04,22,02,43,7.10
2012,04,22,02,44,7.10
2012,04,22,02,45,7.10
2012,04,22,02,46,7.10
2012,04,22,02,47,7.10
2012,04,22,02,48,7.00
2012,04,22,02,49,7.00
2012,04,22,02,50,7.00
2012,04,22,02,51,7.00
2012,04,22,02,52,7.00
2012,04,22,02,53,7.00
2012,04,22,02,54,7.00
2012,04,22,02,55,7.00
2012,04,22,02,56,7.00
2012,04,22,02,57,7.00
2012,04,22,02,58,7.00
2012,04,22,02,59,7.00
2012,04,22,03,00,7.00
2012,04,22,03,01,7.00
2012,04,22,03,02,7.00
2012,04,22,03,03,7.00
2012,04,22,03,06,6.90
2012,04,22,03,07,6.90
2012,04,22,03,08,6.90
2012,04,22,03,09,6.90
2012,04,22,03,10,6.90
2012,04,22,03,11,6.90
2012,04,22,03,12,6.80
2012,04,22,03,13,6.80
2012,04,22,03,14,6.80
2012,04,22,03,15,6.80
2012,04,22,03,16,6.80
2012,04,22,03,17,6.80
2012,04,22,03,18,6.80
2012,04,22,03,19,6.70
2012,04,22,03,20,6.70
2012,04,22,03,21,6.70
2012,04,22,03,22,6.70
2012,04,22,03,23,6.70
2012,04,22,03,24,6.60
2012,04,22,03,25,6.60
2012,04,22,03,26,6.60
2012,04,22,03,27,6.60
2012,04,22,03,28,6.60
2012,04,22,03,29,6.60
2012,04,22,03,30,6.50
2012,04,22,03,31,6.50
2012,04,22,03,32,6.50
2012,04,22,03,33,6.50
2012,04,22,03,34,6.40
2012,04,22,03,35,6.40
2012,04,22,03,36,6.40
2012,04,22,03,37,6.40
2012,04,22,03,38,6.40
2012,04,22,03,39,6.40
2012,04,22,03,40,6.40
2012,04,22,03,41,6.40
2012,04,22,03,42,6.40
2012,04,22,03,43,6.40
2012,04,22,03,44,6.40
2012,04,22,03,45,6.40
2012,04,22,03,46,6.30
2012,04,22,03,47,6.30
2012,04,22,03,48,6.30
2012,04,22,03,49,6.30
2012,04,22,03,50,6.30
2012,04,22,03,51,6.30
2012,04,22,03,52,6.30
2012,04,22,03,53,6.30
2012,04,22,03,54,6.30
2012,04,22,03,55,6.30
2012,04,22,03,56,6.30
2012,04,22,03,57,6.30
2012,04,22,03,58,6.30
2012,04,22,03,59,6.30
2012,04,22,04,00,6.20
2012,04,22,04,01,6.20
2012,04,22,04,02,6.20
2012,04,22,04,03,6.20
2012,04,22,04,04,6.20
2012,04,22,04,05,6.20
2012,04,22,04,06,6.20
2012,04,22,04,07,6.20
2012,04,22,04,08,6.20
2012,04,22,04,09,6.20
2012,04,22,04,10,6.20
2012,04,22,04,11,6.20
2012,04,22,04,12,6.20
2012,04,22,04,13,6.20
2012,04,22,04,14,6.20
2012,04,22,04,15,6.20
2012,04,22,04,16,6.20
2012,04,22,04,17,6.20
2012,04,22,04,18,6.20
2012,04,22,04,19,6.20
2012,04,22,04,20,6.20
2012,04,22,04,21,6.20
2012,04,22,04,22,6.20
2012,04,22,04,23,6.20
2012,04,22,04,24,6.20
2012,04,22,04,25,6.20
2012,04,22,04,26,6.20
2012,04,22,04,27,6.20
2012,04,22,04,28,6.20
2012,04,22,04,29,6.20
2012,04,22,04,30,6.20
2012,04,22,04,31,6.20
2012,04,22,04,32,6.20
2012,04,22,04,33,6.20
2012,04,22,04,34,6.30
2012,04,22,04,35,6.30
2012,04,22,04,36,6.30
2012,04,22,04,37,6.30
2012,04,22,04,38,6.30
2012,04,22,04,39,6.30
2012,04,22,04,40,6.30
2012,04,22,04,41,6.30
2012,04,22,04,42,6.30
2012,04,22,04,43,6.30
2012,04,22,04,44,6.30
2012,04,22,04,45,6.30
2012,04,22,04,46,6.30
2012,04,22,04,47,6.30
2012,04,22,04,48,6.30
2012,04,22,04,49,6.30
2012,04,22,04,50,6.30
2012,04,22,04,51,6.30
2012,04,22,04,52,6.30
2012,04,22,04,53,6.30
2012,04,22,04,54,6.30
2012,04,22,04,55,6.30
2012,04,22,04,56,6.30
2012,04,22,04,57,6.30
2012,04,22,04,58,6.30
2012,04,22,04,59,6.30
2012,04,22,05,00,6.30
2012,04,22,05,01,6.30
2012,04,22,05,02,6.30
2012,04,22,05,03,6.30
2012,04,22,05,04,6.30
2012,04,22,05,05,6.30
2012,04,22,05,06,6.30
2012,04,22,05,07,6.30
2012,04,22,05,08,6.30
2012,04,22,05,09,6.30
2012,04,22,05,10,6.30
2012,04,22,05,11,6.40
2012,04,22,05,12,6.40
2012,04,22,05,13,6.40
2012,04,22,05,14,6.40
2012,04,22,05,15,6.40
2012,04,22,05,16,6.40
2012,04,22,05,17,6.40
2012,04,22,05,18,6.40
2012,04,22,05,19,6.40
2012,04,22,05,20,6.40
2012,04,22,05,21,6.40
2012,04,22,05,22,6.40
2012,04,22,05,23,6.40
2012,04,22,05,24,6.40
2012,04,22,05,25,6.40
2012,04,22,05,26,6.40
2012,04,22,05,27,6.40
2012,04,22,05,28,6.40
2012,04,22,05,29,6.40
2012,04,22,05,30,6.40
2012,04,22,05,31,6.50
2012,04,22,05,32,6.50
2012,04,22,05,33,6.50
2012,04,22,05,34,6.50
2012,04,22,05,35,6.50
2012,04,22,05,36,6.50
2012,04,22,05,37,6.60
2012,04,22,05,38,6.60
2012,04,22,05,39,6.60
2012,04,22,05,40,6.60
2012,04,22,05,41,6.60
2012,04,22,05,42,6.60
2012,04,22,05,43,6.60
2012,04,22,05,44,6.60
2012,04,22,05,45,6.60
2012,04,22,05,46,6.60
2012,04,22,05,47,6.60
2012,04,22,05,48,6.60
2012,04,22,05,49,6.60
2012,04,22,05,50,6.60
2012,04,22,05,51,6.60
2012,04,22,05,52,6.60
2012,04,22,05,53,6.60
2012,04,22,05,54,6.60
2012,04,22,05,55,6.60
2012,04,22,05,56,6.60
2012,04,22,05,57,6.60
2012,04,22,05,58,6.50
2012,04,22,05,59,6.50
2012,04,22,06,00,6.50
2012,04,22,06,01,6.50
2012,04,22,06,02,6.50
2012,04,22,06,03,6.50
2012,04,22,06,04,6.50
2012,04,22,06,05,6.50
2012,04,22,06,06,6.50
2012,04,22,06,07,6.50
2012,04,22,06,08,6.50
2012,04,22,06,09,6.50
2012,04,22,06,10,6.50
2012,04,22,06,11,6.50
2012,04,22,06,12,6.50
2012,04,22,06,13,6.50
2012,04,22,06,14,6.50
2012,04,22,06,15,6.50
2012,04,22,06,16,6.50
2012,04,22,06,17,6.50
2012,04,22,06,18,6.50
2012,04,22,06,19,6.50
2012,04,22,06,20,6.50
2012,04,22,06,21,6.50
2012,04,22,06,22,6.50
2012,04,22,06,23,6.50
2012,04,22,06,24,6.50
2012,04,22,06,25,6.50
2012,04,22,06,26,6.50
2012,04,22,06,27,6.60
2012,04,22,06,28,6.60
2012,04,22,06,29,6.60
2012,04,22,06,30,6.60
2012,04,22,06,31,6.60
2012,04,22,06,32,6.60
2012,04,22,06,33,6.60
2012,04,22,06,34,6.60
2012,04,22,06,35,6.60
2012,04,22,06,36,6.60
2012,04,22,06,37,6.60
2012,04,22,06,38,6.60
2012,04,22,06,39,6.60
2012,04,22,06,40,6.60
2012,04,22,06,41,6.60
2012,04,22,06,42,6.60
2012,04,22,06,43,6.60
2012,04,22,06,44,6.60
2012,04,22,06,45,6.60
2012,04,22,06,46,6.60
2012,04,22,06,47,6.60
2012,04,22,06,48,6.50
2012,04,22,06,49,6.60
2012,04,22,06,50,6.60
2012,04,22,06,51,6.50
2012,04,22,06,52,6.50
2012,04,22,06,53,6.50
2012,04,22,06,54,6.50
2012,04,22,06,55,6.50
2012,04,22,06,56,6.50
2012,04,22,06,57,6.50
2012,04,22,06,58,6.50
2012,04,22,06,59,6.50
2012,04,22,07,00,6.50
2012,04,22,07,01,6.50
2012,04,22,07,02,6.50
2012,04,22,07,03,6.50
2012,04,22,07,04,6.50
2012,04,22,07,05,6.50
2012,04,22,07,06,6.50
2012,04,22,07,07,6.50
2012,04,22,07,08,6.50
2012,04,22,07,09,6.50
2012,04,22,07,10,6.50
2012,04,22,07,11,6.50
2012,04,22,07,12,6.50
2012,04,22,07,13,6.50
2012,04,22,07,14,6.50
2012,04,22,07,15,6.50
2012,04,22,07,16,6.50
2012,04,22,07,17,6.50
2012,04,22,07,18,6.50
2012,04,22,07,19,6.50
2012,04,22,07,20,6.50
2012,04,22,07,21,6.50
2012,04,22,07,22,6.50
2012,04,22,07,23,6.50
2012,04,22,07,24,6.50
2012,04,22,07,25,6.50
2012,04,22,07,26,6.50
2012,04,22,07,27,6.50
2012,04,22,07,28,6.60
2012,04,22,07,29,6.60
2012,04,22,07,30,6.60
2012,04,22,07,31,6.60
2012,04,22,07,32,6.60
2012,04,22,07,33,6.60
2012,04,22,07,34,6.60
2012,04,22,07,35,6.60
2012,04,22,07,36,6.60
2012,04,22,07,37,6.60
2012,04,22,07,38,6.60
2012,04,22,07,39,6.70
2012,04,22,07,40,6.70
2012,04,22,07,41,6.70
2012,04,22,07,42,6.70
2012,04,22,07,43,6.70
2012,04,22,07,44,6.80
2012,04,22,07,45,6.80
2012,04,22,07,46,6.80
2012,04,22,07,47,6.80
2012,04,22,07,48,6.80
2012,04,22,07,49,6.90
2012,04,22,07,50,6.90
2012,04,22,07,51,6.90
2012,04,22,07,52,6.90
2012,04,22,07,53,7.00
2012,04,22,07,54,7.00
2012,04,22,07,55,7.10
2012,04,22,07,56,7.10
2012,04,22,07,57,7.10
2012,04,22,07,58,7.20
2012,04,22,07,59,7.20
2012,04,22,08,00,7.20
2012,04,22,08,01,7.20
2012,04,22,08,02,7.30
2012,04,22,08,03,7.30
2012,04,22,08,04,7.30
2012,04,22,08,05,7.40
2012,04,22,08,06,7.40
2012,04,22,08,07,7.50
2012,04,22,08,08,7.50
2012,04,22,08,09,7.60
2012,04,22,08,10,7.60
2012,04,22,08,11,7.70
2012,04,22,08,12,7.70
2012,04,22,08,13,7.80
2012,04,22,08,14,7.90
2012,04,22,08,15,7.90
2012,04,22,08,16,8.00
2012,04,22,08,17,8.10
2012,04,22,08,18,8.20
2012,04,22,08,19,8.20
2012,04,22,08,20,8.30
2012,04,22,08,21,8.30
2012,04,22,08,22,8.40
2012,04,22,08,23,8.40
2012,04,22,08,24,8.50
2012,04,22,08,25,8.50
2012,04,22,08,26,8.60
2012,04,22,08,27,8.60
2012,04,22,08,28,8.70
2012,04,22,08,29,8.70
2012,04,22,08,30,8.70
2012,04,22,08,31,8.80
2012,04,22,08,32,8.80
2012,04,22,08,33,8.90
2012,04,22,08,34,8.90
2012,04,22,08,35,9.00
2012,04,22,08,36,9.00
2012,04,22,08,37,9.10
2012,04,22,08,38,9.10
2012,04,22,08,39,9.20
2012,04,22,08,40,9.20
2012,04,22,08,41,9.30
2012,04,22,08,42,9.30
2012,04,22,08,43,9.40
2012,04,22,08,44,9.40
2012,04,22,08,45,9.50
2012,04,22,08,46,9.50
2012,04,22,08,47,9.60
2012,04,22,08,48,9.60
2012,04,22,08,49,9.70
2012,04,22,08,50,9.70
2012,04,22,08,51,9.80
2012,04,22,08,52,9.80
2012,04,22,08,53,9.80
2012,04,22,08,54,9.80
2012,04,22,08,55,9.90
2012,04,22,08,56,9.90
2012,04,22,08,57,10.00
2012,04,22,08,58,10.00
2012,04,22,08,59,10.10
2012,04,22,09,00,10.10
2012,04,22,09,01,10.10
2012,04,22,09,02,10.20
2012,04,22,09,03,10.20
2012,04,22,09,04,10.20
2012,04,22,09,05,10.20
2012,04,22,09,06,10.20
2012,04,22,09,07,10.30
2012,04,22,09,08,10.30
2012,04,22,09,09,10.40
2012,04,22,09,10,10.40
2012,04,22,09,11,10.50
2012,04,22,09,12,10.50
2012,04,22,09,13,10.50
2012,04,22,09,14,10.60
2012,04,22,09,15,10.60
2012,04,22,09,16,10.60
2012,04,22,09,17,10.70
2012,04,22,09,18,10.70
2012,04,22,09,19,10.70
2012,04,22,09,20,10.80
2012,04,22,09,21,10.80
2012,04,22,09,22,10.80
2012,04,22,09,23,10.80
2012,04,22,09,24,10.90
2012,04,22,09,25,10.90
2012,04,22,09,26,10.90
2012,04,22,09,27,11.00
2012,04,22,09,28,11.00
2012,04,22,09,29,11.00
2012,04,22,09,30,11.10
2012,04,22,09,31,11.10
2012,04,22,09,32,11.10
2012,04,22,09,33,11.10
2012,04,22,09,34,11.10
2012,04,22,09,35,11.20
2012,04,22,09,36,11.20
2012,04,22,09,37,11.30
2012,04,22,09,38,11.30
2012,04,22,09,39,11.40
2012,04,22,09,40,11.40
2012,04,22,09,41,11.50
2012,04,22,09,42,11.50
2012,04,22,09,43,11.60
2012,04,22,09,44,11.70
2012,04,22,09,45,11.80
2012,04,22,09,46,11.90
2012,04,22,09,47,12.00
2012,04,22,09,48,12.10
2012,04,22,09,49,12.20
2012,04,22,09,50,12.30
2012,04,22,09,51,12.30
2012,04,22,09,52,12.40
2012,04,22,09,53,12.40
2012,04,22,09,54,12.50
2012,04,22,09,55,12.60
2012,04,22,09,56,12.60
2012,04,22,09,57,12.70
2012,04,22,09,58,12.70
2012,04,22,09,59,12.80
2012,04,22,10,00,12.80
2012,04,22,10,01,12.90
2012,04,22,10,02,12.90
2012,04,22,10,03,13.00
2012,04,22,10,04,13.10
2012,04,22,10,05,13.20
2012,04,22,10,06,13.20
2012,04,22,10,07,13.30
2012,04,22,10,08,13.30
2012,04,22,10,09,13.40
2012,04,22,10,10,13.50
2012,04,22,10,11,13.60
2012,04,22,10,12,13.70
2012,04,22,10,13,13.80
2012,04,22,10,14,13.80
2012,04,22,10,15,13.90
2012,04,22,10,16,13.90
2012,04,22,10,17,14.00
2012,04,22,10,18,14.10
2012,04,22,10,19,14.20
2012,04,22,10,20,14.20
2012,04,22,10,21,14.30
2012,04,22,10,22,14.30
2012,04,22,10,23,14.40
2012,04,22,10,24,14.40
2012,04,22,10,25,14.50
2012,04,22,10,26,14.60
2012,04,22,10,27,14.70
2012,04,22,10,28,14.70
2012,04,22,10,29,14.80
2012,04,22,10,30,14.80
2012,04,22,10,31,14.80
2012,04,22,10,32,14.90
2012,04,22,10,33,15.00
2012,04,22,10,34,15.00
2012,04,22,10,35,15.00
2012,04,22,10,36,15.00
2012,04,22,10,37,15.00
2012,04,22,10,38,15.10
2012,04,22,10,39,15.10
2012,04,22,10,40,15.20
2012,04,22,10,41,15.20
2012,04,22,10,42,15.20
2012,04,22,10,43,15.20
2012,04,22,10,44,15.20
2012,04,22,10,45,15.20
2012,04,22,10,46,15.20
2012,04,22,10,47,15.10
2012,04,22,10,48,15.20
2012,04,22,10,49,15.20
2012,04,22,10,50,15.30
2012,04,22,10,51,15.30
2012,04,22,10,52,15.40
2012,04,22,10,53,15.50
2012,04,22,10,54,15.50
2012,04,22,10,55,15.60
2012,04,22,10,56,15.60
2012,04,22,10,57,15.60
2012,04,22,10,58,15.60
2012,04,22,10,59,15.70
2012,04,22,11,00,15.70
2012,04,22,11,01,15.60
2012,04,22,11,02,15.60
2012,04,22,11,03,15.60
2012,04,22,11,04,15.60
2012,04,22,11,05,15.70
2012,04,22,11,06,15.70
2012,04,22,11,07,15.70
2012,04,22,11,08,15.70
2012,04,22,11,09,15.70
2012,04,22,11,10,15.70
2012,04,22,11,11,15.70
2012,04,22,11,12,15.70
2012,04,22,11,13,15.80
2012,04,22,11,14,15.90
2012,04,22,11,15,15.90
2012,04,22,11,16,15.90
2012,04,22,11,17,15.80
2012,04,22,11,18,15.80
2012,04,22,11,19,15.70
2012,04,22,11,20,15.70
2012,04,22,11,21,15.70
2012,04,22,11,22,15.60
2012,04,22,11,23,15.60
2012,04,22,11,24,15.60
2012,04,22,11,25,15.70
2012,04,22,11,26,15.70
2012,04,22,11,27,15.70
2012,04,22,11,28,15.80
2012,04,22,11,29,15.80
2012,04,22,11,30,15.80
2012,04,22,11,31,15.80
2012,04,22,11,32,15.80
2012,04,22,11,33,15.90
2012,04,22,11,34,15.90
2012,04,22,11,35,16.00
2012,04,22,11,36,16.00
2012,04,22,11,37,15.90
2012,04,22,11,38,16.00
2012,04,22,11,39,16.10
2012,04,22,11,40,16.10
2012,04,22,11,41,16.10
2012,04,22,11,42,16.00
2012,04,22,11,43,16.00
2012,04,22,11,44,15.90
2012,04,22,11,45,15.90
2012,04,22,11,46,15.90
2012,04,22,11,47,15.90
2012,04,22,11,48,16.00
2012,04,22,11,49,16.00
2012,04,22,11,50,16.10
2012,04,22,11,51,16.10
2012,04,22,11,52,16.10
2012,04,22,11,53,16.10
2012,04,22,11,54,16.20
2012,04,22,11,55,16.20
2012,04,22,11,56,16.10
2012,04,22,11,57,16.20
2012,04,22,11,58,16.20
2012,04,22,11,59,16.20
2012,04,22,12,00,16.30
2012,04,22,12,01,16.30
2012,04,22,12,02,16.30
2012,04,22,12,03,16.30
2012,04,22,12,04,16.20
2012,04,22,12,05,16.10
2012,04,22,12,06,16.10
2012,04,22,12,07,16.00
2012,04,22,12,08,16.00
2012,04,22,12,09,15.90
2012,04,22,12,10,15.90
2012,04,22,12,11,15.90
2012,04,22,12,12,15.90
2012,04,22,12,13,16.00
2012,04,22,12,14,16.10
2012,04,22,12,15,16.10
2012,04,22,12,16,16.20
2012,04,22,12,17,16.20
2012,04,22,12,18,16.20
2012,04,22,12,19,16.30
2012,04,22,12,20,16.40
2012,04,22,12,21,16.50
2012,04,22,12,22,16.50
2012,04,22,12,23,16.60
2012,04,22,12,24,16.70
2012,04,22,12,25,16.70
2012,04,22,12,26,16.70
2012,04,22,12,27,16.70
2012,04,22,12,28,16.70
2012,04,22,12,29,16.60
2012,04,22,12,30,16.60
2012,04,22,12,31,16.60
2012,04,22,12,32,16.50
2012,04,22,12,33,16.40
2012,04,22,12,34,16.50
2012,04,22,12,35,16.50
2012,04,22,12,36,16.60
2012,04,22,12,37,16.60
2012,04,22,12,38,16.50
2012,04,22,12,39,16.50
2012,04,22,12,40,16.50
2012,04,22,12,41,16.60
2012,04,22,12,42,16.60
2012,04,22,12,43,16.70
2012,04,22,12,44,16.70
2012,04,22,12,45,16.70
2012,04,22,12,46,16.80
2012,04,22,12,47,16.80
2012,04,22,12,48,16.90
2012,04,22,12,49,16.90
2012,04,22,12,50,17.00
2012,04,22,12,51,17.10
2012,04,22,12,52,17.20
2012,04,22,12,53,17.30
2012,04,22,12,54,17.40
2012,04,22,12,55,17.50
2012,04,22,12,56,17.50
2012,04,22,12,57,17.60
2012,04,22,12,58,17.70
2012,04,22,12,59,17.70
2012,04,22,13,00,17.70
2012,04,22,13,01,17.70
2012,04,22,13,02,17.70
2012,04,22,13,03,17.70
2012,04,22,13,04,17.70
2012,04,22,13,05,17.60
2012,04,22,13,06,17.50
2012,04,22,13,07,17.40
2012,04,22,13,08,17.30
2012,04,22,13,09,17.30
2012,04,22,13,10,17.20
2012,04,22,13,11,17.20
2012,04,22,13,12,17.20
2012,04,22,13,13,17.30
2012,04,22,13,14,17.30
2012,04,22,13,15,17.40
2012,04,22,13,16,17.40
2012,04,22,13,17,17.40
2012,04,22,13,18,17.40
2012,04,22,13,19,17.40
2012,04,22,13,20,17.40
2012,04,22,13,21,17.50
2012,04,22,13,22,17.40
2012,04,22,13,23,17.40
2012,04,22,13,24,17.50
2012,04,22,13,25,17.50
2012,04,22,13,26,17.60
2012,04,22,13,27,17.50
2012,04,22,13,28,17.50
2012,04,22,13,29,17.50
2012,04,22,13,30,17.60
2012,04,22,13,31,17.60
2012,04,22,13,32,17.70
2012,04,22,13,33,17.70
2012,04,22,13,34,17.70
2012,04,22,13,35,17.80
2012,04,22,13,36,17.80
2012,04,22,13,37,17.80
2012,04,22,13,38,17.80
2012,04,22,13,39,17.90
2012,04,22,13,40,17.90
2012,04,22,13,41,17.90
2012,04,22,13,42,17.90
2012,04,22,13,43,17.90
2012,04,22,13,44,17.90
2012,04,22,13,45,17.90
2012,04,22,13,46,17.80
2012,04,22,13,47,17.80
2012,04,22,13,48,17.80
2012,04,22,13,49,17.80
2012,04,22,13,50,17.80
2012,04,22,13,51,17.80
2012,04,22,13,52,17.80
2012,04,22,13,53,17.90
2012,04,22,13,54,18.00
2012,04,22,13,55,18.10
2012,04,22,13,56,18.10
2012,04,22,13,57,18.10
2012,04,22,13,58,18.10
2012,04,22,13,59,18.10
2012,04,22,14,00,18.20
2012,04,22,14,01,18.20
2012,04,22,14,02,18.20
2012,04,22,14,03,18.20
2012,04,22,14,04,18.20
2012,04,22,14,05,18.20
2012,04,22,14,06,18.20
2012,04,22,14,07,18.20
2012,04,22,14,08,18.20
2012,04,22,14,09,18.20
2012,04,22,14,10,18.30
2012,04,22,14,11,18.30
2012,04,22,14,12,18.40
2012,04,22,14,13,18.50
2012,04,22,14,14,18.50
2012,04,22,14,15,18.50
2012,04,22,14,16,18.50
2012,04,22,14,17,18.60
2012,04,22,14,18,18.60
2012,04,22,14,19,18.60
2012,04,22,14,20,18.60
2012,04,22,14,21,18.60
2012,04,22,14,22,18.60
2012,04,22,14,23,18.60
2012,04,22,14,24,18.50
2012,04,22,14,25,18.50
2012,04,22,14,26,18.40
2012,04,22,14,27,18.50
2012,04,22,14,28,18.50
2012,04,22,14,29,18.50
2012,04,22,14,30,18.50
2012,04,22,14,31,18.50
2012,04,22,14,32,18.60
2012,04,22,14,33,18.60
2012,04,22,14,34,18.60
2012,04,22,14,35,18.70
2012,04,22,14,36,18.70
2012,04,22,14,37,18.70
2012,04,22,14,38,18.60
2012,04,22,14,39,18.60
2012,04,22,14,40,18.60
2012,04,22,14,41,18.70
2012,04,22,14,42,18.70
2012,04,22,14,43,18.80
2012,04,22,14,44,18.80
2012,04,22,14,45,18.80
2012,04,22,14,46,18.80
2012,04,22,14,47,18.80
2012,04,22,14,48,18.80
2012,04,22,14,49,18.80
2012,04,22,14,50,18.80
2012,04,22,14,51,18.70
2012,04,22,14,52,18.70
2012,04,22,14,53,18.70
2012,04,22,14,54,18.70
2012,04,22,14,55,18.70
2012,04,22,14,56,18.80
2012,04,22,14,57,18.80
2012,04,22,14,58,18.70
2012,04,22,14,59,18.70
2012,04,22,15,00,18.70
2012,04,22,15,01,18.70
2012,04,22,15,02,18.70
2012,04,22,15,03,18.80
2012,04,22,15,04,18.80
2012,04,22,15,05,18.90
2012,04,22,15,06,18.90
2012,04,22,15,07,18.90
2012,04,22,15,08,18.90
2012,04,22,15,09,18.90
2012,04,22,15,10,18.90
2012,04,22,15,11,18.90
2012,04,22,15,12,18.90
2012,04,22,15,13,18.90
2012,04,22,15,14,18.90
2012,04,22,15,15,18.90
2012,04,22,15,16,18.90
2012,04,22,15,17,18.90
2012,04,22,15,18,18.90
2012,04,22,15,19,19.00
2012,04,22,15,20,19.00
2012,04,22,15,21,19.10
2012,04,22,15,22,19.10
2012,04,22,15,23,19.10
2012,04,22,15,24,19.10
2012,04,22,15,25,19.20
2012,04,22,15,26,19.20
2012,04,22,15,27,19.20
2012,04,22,15,28,19.20
2012,04,22,15,29,19.20
2012,04,22,15,30,19.20
2012,04,22,15,31,19.20
2012,04,22,15,32,19.20
2012,04,22,15,33,19.20
2012,04,22,15,34,19.30
2012,04,22,15,35,19.30
2012,04,22,15,36,19.40
2012,04,22,15,37,19.40
2012,04,22,15,38,19.50
2012,04,22,15,39,19.60
2012,04,22,15,40,19.70
2012,04,22,15,41,19.80
2012,04,22,15,42,19.90
2012,04,22,15,43,19.90
2012,04,22,15,44,19.90
2012,04,22,15,45,19.90
2012,04,22,15,46,19.90
2012,04,22,15,47,19.90
2012,04,22,15,48,19.90
2012,04,22,15,49,19.70
2012,04,22,15,50,19.60
2012,04,22,15,51,19.50
2012,04,22,15,52,19.40
2012,04,22,15,53,19.40
2012,04,22,15,54,19.40
2012,04,22,15,55,19.40
2012,04,22,15,56,19.40
2012,04,22,15,57,19.40
2012,04,22,15,58,19.40
2012,04,22,15,59,19.30
2012,04,22,16,00,19.30
2012,04,22,16,01,19.20
2012,04,22,16,02,19.20
2012,04,22,16,03,19.30
2012,04,22,16,04,19.30
2012,04,22,16,05,19.30
2012,04,22,16,06,19.40
2012,04,22,16,07,19.40
2012,04,22,16,08,19.40
2012,04,22,16,09,19.40
2012,04,22,16,10,19.40
2012,04,22,16,11,19.40
2012,04,22,16,12,19.30
2012,04,22,16,13,19.30
2012,04,22,16,14,19.20
2012,04,22,16,15,19.20
2012,04,22,16,16,19.20
2012,04,22,16,17,19.20
2012,04,22,16,18,19.20
2012,04,22,16,19,19.30
2012,04,22,16,20,19.30
2012,04,22,16,21,19.30
2012,04,22,16,22,19.30
2012,04,22,16,23,19.30
2012,04,22,16,24,19.30
2012,04,22,16,25,19.30
2012,04,22,16,26,19.40
2012,04,22,16,27,19.40
2012,04,22,16,28,19.30
2012,04,22,16,29,19.30
2012,04,22,16,30,19.30
2012,04,22,16,31,19.20
2012,04,22,16,32,19.20
2012,04,22,16,33,19.20
2012,04,22,16,34,19.10
2012,04,22,16,35,19.10
2012,04,22,16,36,19.10
2012,04,22,16,37,19.20
2012,04,22,16,38,19.20
2012,04,22,16,39,19.30
2012,04,22,16,40,19.30
2012,04,22,16,41,19.40
2012,04,22,16,42,19.40
2012,04,22,16,43,19.40
2012,04,22,16,44,19.40
2012,04,22,16,45,19.40
2012,04,22,16,46,19.40
2012,04,22,16,47,19.40
2012,04,22,16,48,19.40
2012,04,22,16,49,19.40
2012,04,22,16,50,19.40
2012,04,22,16,51,19.30
2012,04,22,16,52,19.30
2012,04,22,16,53,19.30
2012,04,22,16,54,19.30
2012,04,22,16,55,19.30
2012,04,22,16,56,19.20
2012,04,22,16,57,19.20
2012,04,22,16,58,19.10
2012,04,22,16,59,19.10
2012,04,22,17,00,19.00
2012,04,22,17,01,18.90
2012,04,22,17,02,18.90
2012,04,22,17,03,18.90
2012,04,22,17,04,18.80
2012,04,22,17,05,18.80
2012,04,22,17,06,18.80
2012,04,22,17,07,18.80
2012,04,22,17,08,18.80
2012,04,22,17,09,18.80
2012,04,22,17,10,18.80
2012,04,22,17,11,18.80
2012,04,22,17,12,18.80
2012,04,22,17,13,18.80
2012,04,22,17,14,18.80
2012,04,22,17,15,18.80
2012,04,22,17,16,18.70
2012,04,22,17,17,18.70
2012,04,22,17,18,18.70
2012,04,22,17,19,18.70
2012,04,22,17,20,18.70
2012,04,22,17,21,18.80
2012,04,22,17,22,18.80
2012,04,22,17,23,18.80
2012,04,22,17,24,18.80
2012,04,22,17,25,18.80
2012,04,22,17,26,18.80
2012,04,22,17,27,18.70
2012,04,22,17,28,18.70
2012,04,22,17,29,18.70
2012,04,22,17,30,18.70
2012,04,22,17,31,18.70
2012,04,22,17,32,18.70
2012,04,22,17,33,18.70
2012,04,22,17,34,18.70
2012,04,22,17,35,18.70
2012,04,22,17,36,18.70
2012,04,22,17,37,18.70
2012,04,22,17,38,18.70
2012,04,22,17,39,18.70
2012,04,22,17,40,18.70
2012,04,22,17,41,18.80
2012,04,22,17,42,18.80
2012,04,22,17,43,18.70
2012,04,22,17,44,18.70